TimeCST,TemperatureF,Dew PointF,Humidity,Sea Level PressureIn,VisibilityMPH,Wind Direction,Wind SpeedMPH,Gust SpeedMPH,PrecipitationIn,Events,Conditions,WindDirDegrees,DateUTC
12:56 AM,44.1,42.1,93,30.14,10.0,SSE,3.5,-,N/A,,Clear,160,2012-11-09 06:56:00
1:56 AM,44.1,42.1,93,30.13,10.0,Calm,Calm,-,N/A,,Clear,0,2012-11-09 07:56:00
2:56 AM,43.0,41.0,93,30.14,10.0,Calm,Calm,-,N/A,,Clear,0,2012-11-09 08:56:00
3:56 AM,43.0,41.0,93,30.14,10.0,Calm,Calm,-,N/A,,Clear,0,2012-11-09 09:56:00
4:56 AM,44.1,41.0,89,30.16,9.0,Calm,Calm,-,N/A,,Clear,0,2012-11-09 10:56:00
5:56 AM,44.1,43.0,96,30.17,7.0,Calm,Calm,-,N/A,,Clear,0,2012-11-09 11:56:00
6:56 AM,45.0,43.0,93,30.19,6.0,Calm,Calm,-,N/A,,Clear,0,2012-11-09 12:56:00
7:25 AM,48.2,46.4,93,30.19,2.0,Variable,3.5,-,N/A,,Clear,0,2012-11-09 13:25:00
7:33 AM,48.2,46.4,93,30.19,5.0,Variable,3.5,-,N/A,,Clear,0,2012-11-09 13:33:00
7:56 AM,50.0,46.9,89,30.20,10.0,Calm,Calm,-,N/A,,Clear,0,2012-11-09 13:56:00
8:56 AM,57.9,48.0,70,30.20,10.0,SSE,6.9,-,N/A,,Clear,150,2012-11-09 14:56:00
9:56 AM,64.9,50.0,58,30.19,10.0,SSE,6.9,-,N/A,,Clear,160,2012-11-09 15:56:00
10:56 AM,70.0,50.0,49,30.18,10.0,Variable,4.6,-,N/A,,Clear,0,2012-11-09 16:56:00
11:56 AM,73.9,44.1,34,30.15,10.0,Variable,4.6,-,N/A,,Clear,0,2012-11-09 17:56:00
12:56 PM,77.0,45.0,32,30.12,10.0,SSE,6.9,-,N/A,,Clear,150,2012-11-09 18:56:00
1:56 PM,77.0,44.1,31,30.09,9.0,South,6.9,-,N/A,,Clear,180,2012-11-09 19:56:00
2:56 PM,77.0,46.9,34,30.08,9.0,Variable,4.6,-,N/A,,Clear,0,2012-11-09 20:56:00
3:56 PM,75.0,48.0,38,30.09,8.0,SSE,6.9,-,N/A,,Clear,160,2012-11-09 21:56:00
4:56 PM,71.1,51.1,49,30.09,10.0,SSE,3.5,-,N/A,,Clear,160,2012-11-09 22:56:00
5:56 PM,66.0,52.0,60,30.10,10.0,SSE,3.5,-,N/A,,Clear,150,2012-11-09 23:56:00
6:56 PM,64.9,54.0,68,30.12,10.0,South,6.9,-,N/A,,Clear,170,2012-11-10 00:56:00
7:56 PM,63.0,55.0,75,30.12,10.0,Variable,4.6,-,N/A,,Clear,0,2012-11-10 01:56:00
8:56 PM,62.1,55.9,80,30.14,10.0,SSE,4.6,-,N/A,,Clear,160,2012-11-10 02:56:00
9:56 PM,60.1,55.9,86,30.14,10.0,SSE,4.6,-,N/A,,Clear,160,2012-11-10 03:56:00
10:56 PM,60.1,55.0,83,30.13,10.0,SSE,5.8,-,N/A,,Clear,160,2012-11-10 04:56:00
11:56 PM,59.0,55.0,87,30.13,10.0,Variable,3.5,-,N/A,,Clear,0,2012-11-10 05:56:00